Weather Roundup
Issued by NWS

Home | Current Version | Previous Version | Graphics & Text | Print | Product List | Glossary Off
Versions: 1 2 3 4 5 6 7 8 9 10 11 12 13 14 15 16 17 18 19 20 21 22 23 24 25 26 27 28 29 30 31 32 33 34 35 36 37 38 39 40 41 42 43 44 45 46 47 48 49 50

000
NZUS93 KARX 300910
HRRWXR

CURRENT HOURLY OBSERVATIONS ACROSS
MUCH OF THE UPPER MISSISSIPPI VALLEY
NATIONAL WEATHER SERVICE LA CROSSE WI
400 AM CDT THU OCT 30 2014


...SOUTHEAST MINNESOTA...


CITY           SKY/WX    TMP DP  RH WIND       PRES   REMARKS
ROCHESTER      CLOUDY    36  32  85 S7        30.05F WCI  30
ROCHESTER/MAYO CLOUDY    37  31  79 SE5       30.05F WCI  33
WINONA         CLOUDY    36  34  93 CALM      30.08F
AUSTIN         CLOUDY    37  32  81 S3        30.05S
ALBERT LEA     CLOUDY    37  34  87 S3        30.04F
DODGE CENTER   CLOUDY    37  36  93 S5        30.05R WCI  34
PRESTON        MOCLDY    35  32  90 S7        30.06F WCI  29
OWATONNA       MOCLDY    39  32  75 S6        30.04F WCI  35
FARIBAULT      CLOUDY    39  34  81 CALM      30.05S
$$

...ELSEWHERE IN MINNESOTA...


CITY           SKY/WX    TMP DP  RH WIND       PRES   REMARKS
MINNEAPOLIS    CLOUDY    38  32  79 E3        30.05F
INTNL FALLS    CLOUDY    34  33  96 CALM      30.03S
DULUTH         CLOUDY    36  32  85 SW5       30.03F WCI  32
RED WING       CLOUDY    37  34  87 CALM      30.05F
REDWOOD FALLS  LGT RAIN  40  34  79 E6        30.01F
MANKATO        CLOUDY    39  30  70 SE7       30.03F WCI  34
WORTHINGTON    CLOUDY    45  30  57 CALM      29.98S
FAIRMONT       CLOUDY    41  30  65 S5        30.02S
$$

...SOUTHWEST WISCONSIN...


CITY           SKY/WX    TMP DP  RH WIND       PRES   REMARKS
LA CROSSE      MOCLDY    37  33  85 SE5       30.08F WCI  33
PRAIRIE DU CHI PTCLDY    32  31  95 E3        30.10F
BOSCOBEL       PTCLDY    30  27  88 CALM      30.11F
LONE ROCK      PTCLDY    34  28  79 CALM      30.11F
PLATTEVILLE    MOCLDY    33  31  93 SE5       30.11F WCI  29
FORT MC COY    MOCLDY    30  29  98 CALM      30.09F
CAMP DOUGLAS   CLOUDY    29  29 100 E2        30.08F
VIROQUA        FAIR      37  33  87 S5        30.07F WCI  33
WIS DELLS      PTCLDY    31  30  95 CALM      30.09F
$$

...ELSEWHERE IN WISCONSIN...


CITY           SKY/WX    TMP DP  RH WIND       PRES   REMARKS
MILWAUKEE      PTCLDY    36  30  79 CALM      30.11F
MADISON        CLOUDY    33  30  88 CALM      30.10F
GREEN BAY      PTCLDY    36  34  92 CALM      30.09S
EAU CLAIRE     CLOUDY    35  32  88 CALM      30.06F
BLACK RVR FLS  FAIR      30  30 100 CALM      30.08F
MEDFORD        MOCLDY    32  31  96 CALM      30.05F
WAUSAU         MOCLDY    32  31  96 CALM      30.06S
WIS RAPIDS     MOCLDY    31  30  96 CALM      30.09F
MARSHFIELD     CLOUDY    33  31  92 SW7       30.06F WCI  27
RICE LAKE      CLOUDY    33  32  96 CALM      30.08S
$$

...NORTHEAST IOWA...


CITY           SKY/WX    TMP DP  RH WIND       PRES   REMARKS
DECORAH        MOCLDY    36  32  87 S6        30.07F WCI  31
MASON CITY     MOCLDY    34  32  92 S5        30.06F WCI  30
CHARLES CITY   CLOUDY    37  34  87 S7        30.07F WCI  32
OELWEIN        CLOUDY    34  32  93 SE7       30.09F WCI  28
$$

...ELSEWHERE IN IOWA...


CITY           SKY/WX    TMP DP  RH WIND       PRES   REMARKS
DES MOINES     CLOUDY    44  34  67 SE6       30.06F
IOWA CITY      PTCLDY    34  33  96 CALM      30.12F
FORT DODGE     CLOUDY    45  36  70 SE7       30.02F
$$

...NORTHERN ILLINOIS...


CITY           SKY/WX    TMP DP  RH WIND       PRES   REMARKS
CHICAGO-OHARE  PTCLDY    36  31  82 CALM      30.13S
CHICAGO-MIDWAY PTCLDY    40  34  79 CALM      30.14S
MOLINE         CLEAR     31  28  89 CALM      30.12F
ROCKFORD       PTCLDY    32  29  88 SE3       30.14F
PEORIA         CLEAR     35  31  85 CALM      30.15S
$$

NOTE: "FAIR" INDICATES FEW OR NO CLOUDS BELOW 12,000 FEET WITH NO
SIGNIFICANT WEATHER AND/OR OBSTRUCTIONS TO VISIBILITY. WIND
SPEEDS ARE IN MILES-PER-HOUR.



USA.gov is the U.S. government's official web portal to all federal, state and local government web resources and services.